Weather in Puno

Peru     15˚50′02″S   70˚01′38″W
temp.,
°C
wind,
m/s
gust,
m/s
humid.,
%
clouds,
%
prec.,
mm/h
press.,
hPa
HPBL,
m
28 november, sat
sat2801:00+9˚s225699 0.3 1020540
04:00+7˚se3370100 0.0 1021206
07:00+9˚ssw2364100 0.1 1022554
10:00+12˚ne425764 0.0 1018999
13:00+13˚ene665539 0.0 1014621
16:00+13˚ene78500 0.0 1013595
19:00+12˚ene796529 0.3 1018473
22:00+10˚ne356847 0.7 1021379
29 november, sun
sun2901:00+9˚nne237128 0.9 1019248
04:00+8˚e127699 0.1 1020253
07:00+10˚e226596 0.1 1020711
10:00+12˚ene546131 0.1 1018823
13:00+13˚ene554616 0.1 1013622
16:00+14˚e78480 0.0 1012594
19:00+12˚e68691 0.0 1016446
22:00+10˚e45722 0.3 1020312
30 november, mon
mon3001:00+9˚e127034 0.3 1018311
04:00+8˚nne1277100 0.3 1019194
07:00+10˚n126676 0.3 1019547
10:00+12˚ene435987 0.1 1016855
13:00+15˚e663967 0.1 1011678
16:00+15˚e89460 0.0 1010661
19:00+12˚e58646 0.0 1015416
22:00+10˚ese5669100 0.0 1019344
1 december, tue
tue101:00+9˚e4465100 0.0 1018354
04:00+8˚ese2373100 0.0 1019270
07:00+10˚ese346696 0.9 1020592
10:00+12˚ene556099 1.6 1016788
13:00+13˚e444784 1.6 1012665
16:00+14˚e665438 0.1 1010574
19:00+11˚e687058 0.8 1016370
22:00+10˚sse2367100 1.4 1019326
2 december, wed
wed201:00+8˚nw1172100 1.5 1018192
04:00+8˚wnw117798 1.2 101773
07:00+10˚e126699 2.1 1018399
10:00+12˚ene4356100 0.4 1015776
13:00+14˚e544561 0.6 1011706
16:00+14˚ene665433 0.1 1011594
19:00+9˚sse357266 2.6 1018314
22:00+8˚w5681100 0.9 1020299